Flag for U.S.A. Weather past 2 weeks in Lansing, Michigan, U.S.A.

Now
63 °F

Fog.


Feels Like: 63 °F
Forecast: 53 / 67 °F
Wind: 6 mph from Northwest

Location: Capital City Airport

Current Time: Jul 1, 2015 at 3:13:18 AM

Latest Report: Jul 1, 2015 at 1:53 AM


Visibility: 5 mi

Pressure: 29.82 "Hg

Humidity: 93%

Dew point: 61 °F

Location of LansingLocation

Historic Weather in Lansing — Graph

°F

Lansing temperature yesterday

Maximum temperature yesterday: 71 °F (at 5:53 PM)
Minimum temperature yesterday: 60 °F (at 12:53 AM)
Average temperature yesterday: 65 °F

Past Weeks' High & Low Weather Summary

 TemperatureHumidityPressure
High82 °F (Jun 21, 3:53 PM)97% (Jun 18, 3:53 AM)30.17 "Hg (Jun 18, 3:53 AM)
Low53 °F (Jun 20, 3:53 AM)41% (Jun 24, 2:53 PM)29.70 "Hg (Jun 22, 9:53 PM)
Average68 °F74%29.95 "Hg
* Reported Jun 16 1:04 AM — Jul 1 1:53 AM, Lansing, Weather by CustomWeather, © 2015

Note: Actual official high and low records may vary slightly from our data, if they occured in-between our weather recording intervals... More about our weather records

Advertising

Lansing weather history for previous 24 hours

 ConditionsComfort  
Time TempWeatherWind HumidityBarometerVisibility
1:53 AM
Wed, Jul 1
63 °FFog.6 mph93%29.82 "Hg5 mi
11:53 PM
Tue, Jun 30
63 °FFog.7 mph93%29.82 "Hg4 mi
10:53 PM64 °FFog.3 mph94%29.81 "Hg4 mi
9:53 PM65 °FFog.No wind94%29.80 "Hg6 mi
8:53 PM66 °FHeavy rain. Fog.5 mph87%29.79 "Hg1 mi
7:53 PM69 °FMostly cloudy.5 mph79%29.77 "Hg8 mi
6:53 PM69 °FBroken clouds.6 mph79%29.75 "Hg9 mi
5:53 PM71 °FPassing clouds.6 mph76%29.75 "Hg9 mi
4:53 PM67 °FThunderstorms. Broken clouds.No wind87%29.76 "Hg9 mi
3:53 PM69 °FMostly cloudy.No wind76%29.76 "Hg10 mi
2:53 PM67 °FCloudy.3 mph85%29.78 "Hg10 mi
1:53 PM67 °FLight rain. Cloudy.6 mph81%29.79 "Hg7 mi
12:53 PM70 °FBroken clouds.6 mph68%29.79 "Hg10 mi
11:53 AM67 °FMostly cloudy.3 mph73%29.80 "Hg10 mi
10:53 AM68 °FMore clouds than sun.3 mph70%29.80 "Hg10 mi
9:53 AM66 °FOvercast.6 mph73%29.81 "Hg10 mi
8:53 AM66 °FPartly sunny.5 mph73%29.81 "Hg10 mi
7:53 AM64 °FOvercast.No wind81%29.81 "Hg10 mi
6:53 AM62 °FOvercast.No wind86%29.80 "Hg10 mi
5:53 AM61 °FOvercast.No wind90%29.79 "Hg10 mi
4:53 AM61 °FOvercast.No wind90%29.79 "Hg10 mi
3:53 AM61 °FOvercast.No wind90%29.80 "Hg10 mi
Weather by CustomWeather, © 2015

See weather overviewHow to use our weather pages